Home   Weather   Andernach   Past weeks

Flag for Germany Past Weather in Andernach, Rhineland-Palatinate, Germany — Yesterday and Last 2 Weeks

Now
68 °F

Mild.


Feels Like: 68 °F
Forecast: 68 / 90 °F
Wind: 10 mph from Northeast

Location: Buechel

Current Time: May 28, 2017 at 8:44:19 pm

Latest Report: May 28, 2017 at 7:20 pm


Visibility: 5 mi

Pressure: 30.09 "Hg

Humidity: 78%

Dew Point: 61 °F

Location of AndernachLocation

Past Weather in Andernach — Graph

°F

Andernach Temperature Yesterday

Maximum temperature yesterday: 81 °F (at 4:20 pm)
Minimum temperature yesterday: 57 °F (at 5:20 am)
Average temperature yesterday: 70 °F

High & Low Weather Summary for the Past Weeks

 TemperatureHumidityPressure
High82 °F (May 28, 2:20 pm)100% (May 14, 5:20 am)30.42 "Hg (May 14, 5:20 am)
Low43 °F (May 20, 2:20 am)20% (May 15, 5:20 pm)29.80 "Hg (May 19, 5:55 am)
Average61 °F64%30.15 "Hg
* Reported May 13 7:20 pm — May 28 7:20 pm, Andernach. Weather by CustomWeather, © 2017

Note: Actual official high and low records may vary slightly from our data, if they occured in-between our weather recording intervals... More about our weather records

Advertising

Andernach Weather History for the Previous 24 Hours

Scroll right to see more
 ConditionsComfort  
Time TempWeatherWind HumidityBarometerVisibility
7:20 pm
Sun, May 28
68 °FMild.10 mph78%30.09 "Hg5 mi
6:20 pm73 °FMild.9 mph65%30.09 "Hg5 mi
5:20 pm81 °FWarm.5 mph42%30.07 "HgN/A
4:20 pm82 °FPleasantly warm.5 mph40%30.07 "HgN/A
3:20 pm82 °FPleasantly warm.9 mph40%30.09 "HgN/A
2:20 pm82 °FWarm.8 mph45%30.09 "HgN/A
1:20 pm81 °FWarm.6 mph48%30.12 "HgN/A
12:20 pm77 °FWarm.6 mph54%30.12 "HgN/A
11:20 am79 °FWarm.6 mph48%30.12 "HgN/A
10:20 am77 °FWarm.5 mph47%30.12 "HgN/A
9:20 am75 °FMild.2 mph47%30.12 "HgN/A
8:20 am73 °FMild.No wind47%30.12 "HgN/A
7:20 am68 °FMild.5 mph53%30.09 "HgN/A
6:20 am68 °FMild.2 mph53%30.09 "HgN/A
5:20 am66 °FMild.5 mph56%30.09 "HgN/A
4:20 am66 °FMild.3 mph52%30.09 "Hg6 mi
3:20 am68 °FMild.8 mph49%30.12 "Hg6 mi
2:20 am70 °FMild.7 mph50%30.12 "Hg6 mi
1:20 am68 °FMild.6 mph49%30.12 "Hg6 mi
12:20 am70 °FMild.3 mph43%30.12 "Hg6 mi
11:20 pm
Sat, May 27
72 °FMild.6 mph41%30.12 "Hg6 mi
10:20 pm72 °FMild.6 mph44%30.12 "Hg6 mi
9:20 pm73 °FMild.6 mph41%30.09 "HgN/A
8:20 pm77 °FPleasantly warm.6 mph36%30.09 "HgN/A
Weather by CustomWeather, © 2017

See weather overviewHow to use our weather pages